• Join FlightAware (Why Join?)
  • Login
  • US Flag 
Gobble Gobble! 
12:32PM EST


 

Airport Tracker/Info


-or-


 

Live Flight TrackerFlight Track Log ✈ N502QS ✈ 28-Aug-2013 ✈ KMMU - KBOS

Flight Track Log - Related Links

Times and Time Zones

All times are in EDT time to prevent confusion due to time zone crossing. See the N502QS flight status page for this flight to view local times or setup timezone preferences in your user account.

Time Position Orientation Groundspeed Altitude Reporting Facility
EDT Latitude Longitude Course Direction KTS MPH feet Rate Location/Type
03:09PM 40.7333 -74.4167 51° Northeast 216 249 2,400  Level New York TRACON
03:10PM 40.7667 -74.3500 57° Northeast 239 275 5,100 1,800 Climbing New York TRACON
03:11PM 40.8333 -74.3000 30° Northeast 287 330 6,100 480 Climbing New York TRACON
03:12PM 40.9167 -74.2667 17° North 290 334 6,100  Level New York TRACON
03:13PM 40.9833 -74.2333 21° North 284 327 6,100 480 Level New York TRACON
03:14PM 41.0601 -73.9499 51° Northeast  Level FlightAware Approximate
03:14PM 41.0667 -74.1833 24° Northeast 289 333 7,100  Level New York TRACON
03:15PM 41.1333 -74.1500 21° North 295 339 9,200 2,100 Climbing New York TRACON
03:16PM 41.1833 -74.0500 56° Northeast 294 338 11,400 1,980 Climbing New York TRACON
03:17PM 41.2000 -73.9333 79° East 367 422 13,200 1,800 Climbing New York TRACON
03:19PM 41.2206 -73.6597 84° East 356 410 17,100 1,140 Climbing Boston Center
03:20PM 41.1825 -73.5103 109° East 389 448 17,000 1,080 Descending Boston Center
03:21PM 41.2022 -73.3808 79° East 369 425 19,300 1,980 Climbing Boston Center
03:22PM 41.2408 -73.2461 69° East 369 425 21,000 840 Climbing Boston Center
03:23PM 41.2814 -73.1058 69° East 387 445 21,000  Level Boston Center
03:24PM 41.3197 -72.9653 70° East 393 452 21,000  Level Boston Center
03:25PM 41.3597 -72.8272 69° East 399 459 21,000  Level Boston Center
03:26PM 41.3936 -72.6864 72° East 399 459 21,000  Level Boston Center
03:27PM 41.4106 -72.5342 82° East 399 459 21,000 -120 Level Boston Center
03:28PM 41.4231 -72.3875 83° East 399 459 20,800 -600 Descending Boston Center
03:29PM 41.4417 -72.2433 80° East 400 460 19,800 -960 Descending Boston Center
03:30PM 41.4786 -72.1047 70° East 390 449 18,900 -1,380 Descending Boston Center
03:31PM 41.5283 -71.9658 64° Northeast 383 441 17,100 -1,680 Descending Boston Center
03:32PM 41.5714 -71.8519 63° Northeast 370 426 15,700 -1,440 Descending Boston Center
03:33PM 41.6167 -71.7236 65° Northeast 357 411 14,200 -1,320 Descending Boston Center
03:34PM 41.6494 -71.6344 64° Northeast 313 360 13,100 -1,200 Descending Boston Center
03:35PM 41.6903 -71.5228 64° Northeast 301 346 11,900 -1,080 Descending Boston Center
03:36PM 41.7228 -71.4333 64° Northeast 301 346 11,000 -480 Descending Boston Center
03:37PM 41.7572 -71.3269 67° East 296 341 11,000  Level Boston Center
03:38PM 41.7794 -71.2542 68° East 258 297 11,000 -120 Level Boston Center
03:39PM 41.8075 -71.1589 68° East 244 281 10,800 -780 Descending Boston Center
03:40PM 41.8339 -71.0858 64° Northeast 239 275 9,500 -1,380 Descending Boston Center
03:41PM 41.8917 -71.0400 31° Northeast 217 250 8,100 -1,080 Descending Boston Center
03:42PM 41.9400 -71.0781 330° Northwest 216 249 7,400 -1,080 Descending Boston Center
03:43PM 41.9867 -71.1442 314° West 214 246 6,000 -1,200 Descending Boston Center
03:44PM 42.0247 -71.1992 313° West 209 241 5,100 -840 Descending Boston Center
03:45PM 42.0706 -71.2067 353° North 159 183 4,400 -600 Descending Boston Center
03:46PM 42.0992 -71.1503 56° Northeast 137 158 3,900 -480 Descending Boston Center
03:47PM 42.1364 -71.1158 34° Northeast 160 184 3,500 -420 Descending Boston Center
03:48PM 42.1839 -71.0925 20° North 165 190 3,100 -420 Descending Boston Center
03:49PM 42.2275 -71.0692 22° Northeast 170 196 2,700 -720 Descending Boston Center
03:50PM 42.2731 -71.0511 16° North 163 188 1,700 -900 Descending Boston Center
03:52PM 42.3333 -71.0167 23° Northeast 127 146 600 -840 Descending KA90
03:53PM 42.3500 -71.0000 North  Level FlightAware Approximate
04:00PM 42.3630 -71.0064 North  Level Estimated
04:01PM 42.3630 -71.0064 North  Level Estimated